092  
ASUS41 KGYX 310710  
RWRGYX  
WEATHER ROUNDUP FOR MAINE AND NEW HAMPSHIRE  
NATIONAL WEATHER SERVICE GRAY ME  
300 AM EDT SUN MAY 31 2020  
 
MEZ002-005-006-010-012-015-018-020-021-024-026-027-029-310800-  
MAINE  
 
CITY SKY/WX TMP DP RH WIND PRES REMARKS
 
PORTLAND CLOUDY 63 50 62 W6 29.79S  
SANFORD PTCLDY 60 50 69 W7 29.82R  
BAR HARBOR CLOUDY 52 51 97 CALM 29.75F  
WISCASSET CLOUDY 56 54 93 CALM 29.79R  
ROCKLAND CLOUDY 55 53 93 W8 29.77R  
FRYEBURG CLOUDY 60 45 57 NW12G22 29.83R  
LEWISTONAUBURN PTCLDY 58 52 80 NW7 29.80R  
AUGUSTA CLOUDY 59 52 77 NW8 29.79S  
WATERVILLE LGT RAIN 57 54 89 N5 29.77R  
BANGOR CLOUDY 56 51 84 W7 29.77R  
GREENVILLE N/A 52 49 89 VRB3 29.75S  
MILLINOCKET LGT RAIN 54 51 90 W6 29.77R  
HOULTON PTCLDY 47 45 93 CALM 29.70F  
PRESQUE ISLE CLOUDY 47 46 97 CALM 29.72F  
FRENCHVILLE RAIN 46 43 89 W16G23 29.75R  
CARIBOU CLOUDY 50 42 74 SE5 29.70F  

 
 
NHZ002-005-008-009-011-012-014-310800-  
NEW HAMPSHIRE  
 
CITY SKY/WX TMP DP RH WIND PRES REMARKS
 
PORTSMOUTH MOCLDY 63 49 59 W9 29.80S  
ROCHESTER PTCLDY 61 49 64 VRB7 29.82R  
NASHUA CLEAR 62 50 64 W8 29.86S  
MANCHESTER PTCLDY 62 50 64 W8 29.83S  
CONCORD CLEAR 60 50 69 NW12G18 29.85R  
LACONIA CLEAR 58 47 66 W8G17 29.85R  
PLYMOUTH CLOUDY 56 47 71 NW12G21 29.87R  
BERLIN CLOUDY 54 47 77 CALM 29.84R  
WHITEFIELD CLOUDY 51 45 79 W12G21 29.89R  
JAFFREY CLEAR 56 47 71 W3 29.88S  
KEENE MOCLDY 56 50 80 CALM 29.89S  
LEBANON MOCLDY 57 46 66 NW10G20 29.89R  
MT WASHINGTON LGT RAIN 34 34 100 W51G70 N/A VSB 0 WCI 17  

 
 
VTZ005-007-008-310800-  
VERMONT  
 
CITY SKY/WX TMP DP RH WIND PRES REMARKS
 
ST JOHNSBURY N/A 50 43 77 MISG 29.91R  
MONTPELIER CLOUDY 46 42 86 NW13G20 29.98R  
BURLINGTON CLOUDY 50 40 68 NW14 30.00R  

 
 
MAZ007-012-024-CTZ003-RIZ002-NYZ038-NYZ072-310800-  
SOUTHERN NEW ENGLAND AND NY  
 
CITY SKY/WX TMP DP RH WIND PRES REMARKS
 
BOSTON PTCLDY 63 48 58 W14G22 29.85R  
WORCESTER CLEAR 57 46 66 W16 29.88S  
NANTUCKET CLEAR 61 55 81 NW10 29.83R  
PROVIDENCE CLOUDY 64 49 57 NW13 29.87R  
HARTFORD PTCLDY 58 45 62 NW9 29.93R  
ALBANY PTCLDY 54 43 66 W7 29.99R  
NEW YORK CITY CLEAR 65 44 46 NW18G26 29.94R  

 
 
ANZ081-ANZ082-ANZ150-NHZ014-MEZ023>029-310800-  
COASTAL MARINE OBSERVATIONS  
 
STATION/POSITION TIME TEMP WIND PRES WAVE
 
AIR SEA DIR/SP/G HT/PER  
(UTC) (F) (DEG/KT/KT) (MB) (FT/S)  
MOUNT DESERT ROC 0600 260/ 5/ 5 1007.8S  
ISLE OF SHOALS 0600 63 270/ 13/ 15 1008.9R  
JEFFREYS LEDGE 0608 58 N/A 3/ 7  
GEORGES BANK BUO 0650 47 1010.9F 6/ 8  

 
   
............KEY...........
 
 
WCI - WIND CHILL  
TC - TEMPERATURE IN CELSIUS  
VSB - VISIBILITY
IN MILES  
HX - HEAT INDEX  
FAIR- INDICATES FEW OR NO CLOUDS BELOW 12,000 FT, WITH NO  
SIGNIFICANT WEATHER AND/OR S TO VISIBILITY.  
 
 
 
CLICK HERE TO GO TO PREVIOUS BULLETINS.

The Nexlab ME Page
The Nexlab NH Page Main Text Page